"2009-08-29 00:00:00",1192609,2.313,351.7,2.867,0.251,19.63,109.9526,24.77,25.79,22.5,0,111.3,13.1,25.61,313.7
"2009-08-29 00:00:30",1192610,2.039,353.5,10.68,0.781,19.89,109.9554,24.78,25.79,22.51,0,111.3,13.1,25.62,315.5
"2009-08-29 00:01:00",1192611,1.371,1.038,12.66,0.334,20.13,109.943,24.75,25.8,22.56,0,111.3,13.1,25.59,323.0
"2009-08-29 00:01:30",1192612,1.129,5.313,12.41,0.568,20.22,109.9327,24.72,25.78,22.67,0,111.3,13.1,25.56,327.3
"2009-08-29 00:02:00",1192613,1.216,4.737,12.38,0.548,20.29,109.9144,24.67,25.76,22.84,0,111.3,13.1,25.51,326.7
"2009-08-29 00:02:30",1192614,1.38,6.024,9.94,0.385,20.08,109.9043,24.65,25.74,22.91,0,111.3,13.1,25.49,328.0
"2009-08-29 00:03:00",1192615,1.584,1.204,6.255,0.315,20.05,109.9066,24.65,25.72,22.79,0,111.3,13.1,25.49,323.2
"2009-08-29 00:03:30",1192616,1.788,8.31,7.968,0.299,19.84,109.9068,24.66,25.71,22.89,0,111.3,13.1,25.49,330.3
"2009-08-29 00:04:00",1192617,1.092,8.71,12.07,0.502,19.86,109.9074,24.66,25.7,22.92,0,111.3,13.1,25.49,330.7
"2009-08-29 00:04:30",1192618,1.615,40.41,8.05,0.154,19.56,109.9077,24.66,25.71,22.94,0,111.3,13.1,25.50,2.4
"2009-08-29 00:05:00",1192619,1.436,43.6,6.785,0.175,19.58,109.9071,24.66,25.71,22.97,0,111.3,13.1,25.49,5.6
"2009-08-29 00:05:30",1192620,1.706,38.87,6.391,0.184,19.81,109.9074,24.66,25.71,23.01,0,111.3,13.1,25.49,0.9
"2009-08-29 00:06:00",1192621,0.988,20.7,6.507,0.211,20.04,109.9071,24.66,25.72,23.02,0,111.3,13.1,25.49,342.7
"2009-08-29 00:06:30",1192622,0.761,1.509,15.42,0.363,20.29,109.9066,24.65,25.71,23.02,0,111.3,13.1,25.49,323.5
"2009-08-29 00:07:00",1192623,0.769,349.4,25.27,0.433,20.12,109.901,24.64,25.7,22.95,0,111.3,13.1,25.48,311.4
"2009-08-29 00:07:30",1192624,1.477,15.3,12.71,0.402,20.01,109.8996,24.64,25.71,22.96,0,111.3,13.1,25.47,337.3
"2009-08-29 00:08:00",1192625,1.656,14.64,7.426,0.169,20.12,109.9005,24.64,25.7,23.13,0,111.3,13.1,25.48,336.6
"2009-08-29 00:08:30",1192626,1.3,7.999,10.28,0.307,20.22,109.9048,24.65,25.7,23.21,0,111.3,13.11,25.49,330.0
"2009-08-29 00:09:00",1192627,1.753,346.8,7.325,0.314,20.2,109.9073,24.66,25.69,23.03,0,111.3,13.1,25.49,308.8
"2009-08-29 00:09:30",1192628,2.283,341.7,11.4,0.265,20.16,109.9096,24.66,25.68,22.99,0,111.3,13.1,25.50,303.7
"2009-08-29 00:10:00",1192629,1.875,327.3,1.281,0.222,20.18,109.899,24.64,25.67,22.9,0,111.3,13.11,25.47,289.3
"2009-08-29 00:10:30",1192630,1.757,335.7,8.76,0.339,20.34,109.8904,24.61,25.67,22.88,0,111.3,13.11,25.45,297.7
"2009-08-29 00:11:00",1192631,2.422,337.5,5.385,0.372,20.35,109.89,24.61,25.66,22.92,0,111.3,13.11,25.45,299.5
"2009-08-29 00:11:30",1192632,2.462,334.7,6.72,0.3,20.39,109.8787,24.58,25.64,23.1,0,111.3,13.11,25.42,296.7
"2009-08-29 00:12:00",1192633,1.887,346.3,16.3,0.678,20.52,109.8597,24.53,25.6,23.12,0,111.3,13.11,25.37,308.3
"2009-08-29 00:12:30",1192634,1.934,351.7,10.16,0.664,20.46,109.8606,24.54,25.6,23.2,0,111.3,13.11,25.37,313.7
"2009-08-29 00:13:00",1192635,1.288,353.2,6.27,0.207,20.22,109.85,24.51,25.57,23.29,0,111.3,13.11,25.35,315.2
"2009-08-29 00:13:30",1192636,1.187,350.4,5.072,0.215,20.15,109.8361,24.47,25.55,23.35,0,111.3,13.11,25.31,312.4
"2009-08-29 00:14:00",1192637,1.713,356.5,10.9,0.328,20.25,109.8322,24.46,25.53,23.34,0,111.2,13.11,25.30,318.5
"2009-08-29 00:14:30",1192638,1.58,13.11,8.09,0.357,20.25,109.8314,24.46,25.52,23.47,0,111.2,13.11,25.30,335.1
"2009-08-29 00:15:00",1192639,0.958,338.1,9.37,0.157,20.31,109.8147,24.42,25.49,23.49,0,111.2,13.11,25.26,300.1
"2009-08-29 00:15:30",1192640,1.41,339.9,11.88,0.201,20.29,109.8024,24.39,25.48,23.35,0,111.2,13.1,25.22,301.9
"2009-08-29 00:16:00",1192641,1.77,349.2,9.14,0.304,20.34,109.8013,24.38,25.44,23.34,0,111.2,13.11,25.22,311.2
"2009-08-29 00:16:30",1192642,1.017,341.4,6.415,0.428,20.3,109.7948,24.37,25.42,23.3,0,111.2,13.11,25.20,303.4
"2009-08-29 00:17:00",1192643,0.988,8.78,8.6,0.343,20.31,109.7783,24.32,25.41,23.35,0,111.2,13.12,25.16,330.8
"2009-08-29 00:17:30",1192644,1.39,15.38,5.001,0.198,20.33,109.7676,24.3,25.38,23.56,0,111.2,13.11,25.13,337.4
"2009-08-29 00:18:00",1192645,1.236,22.48,4.705,0.192,20.34,109.7676,24.3,25.36,23.69,0,111.2,13.11,25.13,344.5
"2009-08-29 00:18:30",1192646,0.795,8.53,8.99,0.184,20.52,109.755,24.26,25.34,23.74,0,111.2,13.11,25.10,330.5
"2009-08-29 00:19:00",1192647,0.974,359.5,11.04,0.403,20.5,109.7381,24.22,25.32,23.79,0,111.2,13.11,25.06,321.5
"2009-08-29 00:19:30",1192648,1.464,358.7,9.81,0.593,20.45,109.7339,24.21,25.31,23.67,0,111.2,13.11,25.05,320.7
"2009-08-29 00:20:00",1192649,1.288,350.5,8.51,0.636,20.49,109.7311,24.2,25.29,23.59,0,111.2,13.1,25.04,312.5
"2009-08-29 00:20:30",1192650,1.918,351.3,4.319,0.288,20.54,109.7047,24.14,25.25,23.57,0,111.2,13.11,24.97,313.3
"2009-08-29 00:21:00",1192651,1.936,348.4,6.477,0.213,20.51,109.6699,24.05,25.21,23.63,0,111.2,13.11,24.88,310.4
"2009-08-29 00:21:30",1192652,1.988,346.6,8.28,0.383,20.43,109.6665,24.04,25.16,23.69,0,111.2,13.11,24.87,308.6
"2009-08-29 00:22:00",1192653,2.237,358.6,6.435,0.183,20.46,109.6523,24,25.12,23.89,0,111.2,13.11,24.84,320.6
"2009-08-29 00:22:30",1192654,2.083,12.33,4.729,0.134,20.41,109.6371,23.96,25.11,23.98,0,111.2,13.11,24.80,334.3
"2009-08-29 00:23:00",1192655,2.42,8.77,3.777,0.387,20.43,109.6341,23.95,25.09,24.07,0,111.2,13.12,24.79,330.8
"2009-08-29 00:23:30",1192656,2.428,357,6.685,0.52,20.53,109.6321,23.95,25.05,24.05,0,111.2,13.12,24.78,319.0
"2009-08-29 00:24:00",1192657,1.066,4.593,12.63,0.708,20.67,109.6088,23.89,25.03,24.08,0,111.2,13.12,24.72,326.6
"2009-08-29 00:24:30",1192658,1.113,9.53,8.92,0.425,20.61,109.6087,23.89,25.01,24.23,0,111.2,13.12,24.72,331.5
"2009-08-29 00:25:00",1192659,1.634,15.08,5.171,0.494,20.61,109.6051,23.88,24.98,24.34,0,111.2,13.12,24.72,337.1
"2009-08-29 00:25:30",1192660,1.738,18.19,5.808,0.418,20.58,109.5941,23.85,24.95,24.56,0,111.2,13.12,24.69,340.2
"2009-08-29 00:26:00",1192661,2.136,26.9,3.871,0.272,20.56,109.5894,23.84,24.93,24.73,0,111.2,13.12,24.67,348.9
"2009-08-29 00:26:30",1192662,1.927,22.68,2.679,0.204,20.57,109.5924,23.85,24.9,24.87,0,111.2,13.12,24.68,344.7
"2009-08-29 00:27:00",1192663,1.791,29.02,2.854,0.238,20.55,109.5786,23.81,24.88,24.9,0,111.2,13.12,24.65,351.0
"2009-08-29 00:27:30",1192664,1.072,27.54,7.481,0.161,20.57,109.5646,23.78,24.85,24.97,0,111.2,13.12,24.61,349.5
"2009-08-29 00:28:00",1192665,1.358,34.2,3.778,0.311,20.57,109.5595,23.76,24.83,25.07,0,111.2,13.12,24.60,356.2
"2009-08-29 00:28:30",1192666,2.049,38.51,5.789,0.186,20.57,109.5597,23.76,24.82,25.08,0,111.2,13.13,24.60,0.5
"2009-08-29 00:29:00",1192667,1.85,31.51,6.143,0.266,20.56,109.5435,23.72,24.8,25.17,0,111.1,13.13,24.56,353.5
"2009-08-29 00:29:30",1192668,1.572,10.17,11.75,0.396,20.56,109.5319,23.69,24.78,25.14,0,111.1,13.13,24.53,332.2
"2009-08-29 00:30:00",1192669,1.698,359.1,4.866,0.289,20.54,109.5341,23.7,24.75,24.84,0,111.1,13.13,24.53,321.1
"2009-08-29 00:30:30",1192670,2.073,348.3,4.326,0.179,20.4,109.5176,23.66,24.73,24.79,0,111.1,13.13,24.49,310.3
"2009-08-29 00:31:00",1192671,1.909,356.8,9.79,0.216,20.38,109.5044,23.62,24.7,24.87,0,111.1,13.13,24.46,318.8
"2009-08-29 00:31:30",1192672,1.773,19.83,3.129,0.236,20.42,109.5013,23.61,24.69,24.96,0,111.1,13.13,24.45,341.8
"2009-08-29 00:32:00",1192673,1.523,27.86,4.828,0.209,20.45,109.4974,23.6,24.67,25.03,0,111.1,13.13,24.44,349.9
"2009-08-29 00:32:30",1192674,1.928,28.19,2.35,0.303,20.45,109.4814,23.56,24.65,25.22,0,111.1,13.13,24.40,350.2
"2009-08-29 00:33:00",1192675,2.043,33.52,2.336,0.123,20.32,109.4696,23.53,24.65,25.34,0,111.1,13.13,24.37,355.5
"2009-08-29 00:33:30",1192676,1.705,21.39,8.6,0.495,20.37,109.4677,23.53,24.62,25.36,0,111.1,13.13,24.36,343.4
"2009-08-29 00:34:00",1192677,1.049,11.3,5.817,0.364,20.43,109.4637,23.52,24.61,25.36,0,111.1,13.13,24.35,333.3
"2009-08-29 00:34:30",1192678,1.865,20.81,4.976,0.32,20.45,109.446,23.47,24.58,25.43,0,111.1,13.13,24.31,342.8
"2009-08-29 00:35:00",1192679,1.878,19.32,5.043,0.169,20.54,109.4404,23.46,24.57,25.58,0,111.1,13.13,24.29,341.3
"2009-08-29 00:35:30",1192680,1.638,18.45,3.76,0.25,20.52,109.4342,23.44,24.56,25.57,0,111.1,13.13,24.27,340.5
"2009-08-29 00:36:00",1192681,2.057,25.22,3.711,0.466,20.55,109.434,23.44,24.54,25.62,0,111.1,13.12,24.27,347.2
"2009-08-29 00:36:30",1192682,2.151,18.39,2.645,0.313,20.56,109.434,23.44,24.53,25.71,0,111.1,13.13,24.27,340.4
"2009-08-29 00:37:00",1192683,1.89,16.1,1.948,0.212,20.56,109.4323,23.44,24.51,25.75,0,111.1,13.13,24.27,338.1
"2009-08-29 00:37:30",1192684,1.814,14.68,2.905,0.221,20.57,109.4177,23.4,24.52,25.81,0,111.1,13.13,24.23,336.7
"2009-08-29 00:38:00",1192685,1.46,15.61,3.715,0.261,20.6,109.4134,23.39,24.49,25.81,0,111.1,13.13,24.22,337.6
"2009-08-29 00:38:30",1192686,1.398,15.09,3.769,0.237,20.59,109.4139,23.39,24.49,25.82,0,111.1,13.13,24.22,337.1
"2009-08-29 00:39:00",1192687,2.012,20.3,2.205,0.207,20.58,109.4205,23.41,24.47,25.86,0,111.1,13.13,24.24,342.3
"2009-08-29 00:39:30",1192688,2.084,20.85,2.067,0.103,20.57,109.4242,23.42,24.47,25.89,0,111.1,13.13,24.25,342.9
"2009-08-29 00:40:00",1192689,2.152,22.71,2.578,0.21,20.56,109.4258,23.42,24.46,25.92,0,111.1,13.14,24.25,344.7
"2009-08-29 00:40:30",1192690,2.182,19,1.721,0.166,20.56,109.4276,23.42,24.45,25.92,0,111.1,13.14,24.26,341.0
"2009-08-29 00:41:00",1192691,2.05,24.24,3.19,0.15,20.56,109.4232,23.41,24.44,25.94,0,111.1,13.14,24.25,346.2
"2009-08-29 00:41:30",1192692,2.114,24.41,2.796,0.16,20.56,109.4085,23.38,24.43,25.99,0,111.1,13.14,24.21,346.4
"2009-08-29 00:42:00",1192693,2.101,26.83,1.78,0.147,20.57,109.401,23.36,24.42,26.04,0,111.1,13.14,24.19,348.8
"2009-08-29 00:42:30",1192694,2.237,24.08,1.728,0.206,20.59,109.397,23.35,24.42,26.08,0,111.1,13.14,24.18,346.1
"2009-08-29 00:43:00",1192695,1.888,29.02,2.833,0.141,20.59,109.4022,23.36,24.41,26.09,0,111.1,13.14,24.19,351.0
"2009-08-29 00:43:30",1192696,1.962,27.93,2.321,0.135,20.57,109.4025,23.36,24.39,26.11,0,111.1,13.14,24.19,349.9
"2009-08-29 00:44:00",1192697,2.044,25.62,1.919,0.187,20.56,109.3953,23.34,24.39,26.01,0,111.1,13.14,24.17,347.6
"2009-08-29 00:44:30",1192698,2.32,27.95,1.533,0.315,20.56,109.3784,23.3,24.37,26.11,0,111.1,13.14,24.13,350.0
"2009-08-29 00:45:00",1192699,2.16,24.39,2.273,0.158,20.56,109.3697,23.28,24.36,26.1,0,111.1,13.14,24.11,346.4
"2009-08-29 00:45:30",1192700,2.023,23.66,3.419,0.147,20.57,109.3697,23.28,24.34,26.06,0,111.1,13.14,24.11,345.7
"2009-08-29 00:46:00",1192701,2.208,24.92,3.146,0.225,20.54,109.3697,23.28,24.32,26.16,0,111.1,13.14,24.11,346.9
"2009-08-29 00:46:30",1192702,2.312,26.31,1.894,0.179,20.51,109.3571,23.24,24.3,26.11,0,111.1,13.14,24.08,348.3
"2009-08-29 00:47:00",1192703,2.79,27.82,1.994,0.264,20.55,109.3408,23.2,24.28,26.13,0,111.1,13.14,24.03,349.8
"2009-08-29 00:47:30",1192704,2.784,24.99,2.793,0.202,20.53,109.336,23.19,24.28,26.11,0,111.1,13.15,24.02,347.0
"2009-08-29 00:48:00",1192705,2.301,23.94,1.905,0.113,20.52,109.336,23.19,24.26,26.08,0,111.1,13.15,24.02,345.9
"2009-08-29 00:48:30",1192706,2.352,24.23,2.546,0.241,20.55,109.3332,23.18,24.24,26.12,0,111.1,13.15,24.01,346.2
"2009-08-29 00:49:00",1192707,2.37,20.26,2.582,0.242,20.53,109.3223,23.15,24.23,26.15,0,111.1,13.15,23.99,342.3
"2009-08-29 00:49:30",1192708,2.624,21.36,2.372,0.211,20.52,109.3082,23.12,24.23,26.13,0,111.1,13.15,23.95,343.4
"2009-08-29 00:50:00",1192709,2.373,21.2,3.336,0.294,20.51,109.3023,23.1,24.2,26.12,0,111.1,13.15,23.93,343.2
"2009-08-29 00:50:30",1192710,2.254,20.82,3.166,0.278,20.5,109.3023,23.1,24.19,26.15,0,111,13.15,23.93,342.8
"2009-08-29 00:51:00",1192711,2.183,25.8,4.675,0.231,20.48,109.3023,23.1,24.18,26.19,0,111,13.15,23.93,347.8
"2009-08-29 00:51:30",1192712,1.902,28.1,2.496,0.139,20.53,109.2995,23.1,24.18,26.18,0,111,13.15,23.93,350.1
"2009-08-29 00:52:00",1192713,1.822,30.11,1.899,0.164,20.53,109.2799,23.04,24.14,26.28,0,111,13.14,23.88,352.1
"2009-08-29 00:52:30",1192714,1.822,28.19,3.134,0.228,20.54,109.2729,23.03,24.14,26.39,0,111,13.14,23.86,350.2
"2009-08-29 00:53:00",1192715,2.237,29.12,2.495,0.253,20.53,109.2763,23.04,24.11,26.32,0,111,13.14,23.87,351.1
"2009-08-29 00:53:30",1192716,2.275,24.65,2.66,0.244,20.51,109.2815,23.05,24.11,26.32,0,111,13.14,23.88,346.6
"2009-08-29 00:54:00",1192717,2.502,22.57,1.434,0.122,20.53,109.2815,23.05,24.1,26.31,0,111,13.14,23.88,344.6
"2009-08-29 00:54:30",1192718,2.174,25.4,1.858,0.205,20.52,109.2637,23,24.07,26.27,0,111,13.14,23.84,347.4
"2009-08-29 00:55:00",1192719,2.094,30.26,3.212,0.232,20.56,109.2619,23,24.07,26.37,0,111,13.14,23.83,352.3
"2009-08-29 00:55:30",1192720,1.922,29.79,1.497,0.114,20.55,109.2631,23,24.06,26.42,0,111,13.14,23.83,351.8
"2009-08-29 00:56:00",1192721,2.205,30.26,1.87,0.183,20.58,109.26,22.99,24.03,26.44,0,111,13.14,23.83,352.3
"2009-08-29 00:56:30",1192722,2.393,32.08,1.212,0.161,20.57,109.2441,22.95,24.01,26.55,0,111,13.14,23.78,354.1
"2009-08-29 00:57:00",1192723,2.286,31.63,1.132,0.126,20.57,109.2324,22.92,24.02,26.72,0,111,13.15,23.75,353.6
"2009-08-29 00:57:30",1192724,2.564,33.36,2.335,0.343,20.56,109.2334,22.93,23.99,26.74,0,111,13.15,23.76,355.4
"2009-08-29 00:58:00",1192725,2.943,36.23,1.254,0.182,20.57,109.232,22.92,23.95,26.87,0,111,13.15,23.75,358.2
"2009-08-29 00:58:30",1192726,3.063,36.77,0.606,0.067,20.58,109.2141,22.88,23.94,26.94,0,111,13.15,23.71,358.8
"2009-08-29 00:59:00",1192727,2.904,38.89,1.237,0.044,20.57,109.204,22.85,23.91,27,0,111,13.15,23.68,0.9
"2009-08-29 00:59:30",1192728,2.848,40.8,1.497,0.052,20.53,109.2037,22.85,23.9,27.06,0,111,13.15,23.68,2.8
"2009-08-29 01:00:00",1192729,2.825,41.45,0.945,0.052,20.51,109.2035,22.85,23.89,27.14,0,111,13.15,23.68,3.5
"2009-08-29 01:00:30",1192730,2.887,41.3,1.203,0.088,20.44,109.1883,22.81,23.86,27.18,0,111,13.15,23.64,3.3
"2009-08-29 01:01:00",1192731,3.009,42.88,1.337,0.055,20.5,109.1754,22.78,23.86,27.27,0,111,13.15,23.61,4.9
"2009-08-29 01:01:30",1192732,2.985,42.91,0.721,0.056,20.46,109.1706,22.76,23.84,27.29,0,111,13.15,23.60,4.9
"2009-08-29 01:02:00",1192733,2.986,44.61,1.146,0.044,20.46,109.1706,22.76,23.83,27.29,0,111,13.15,23.60,6.6
"2009-08-29 01:02:30",1192734,2.828,44.34,0.807,0.066,20.5,109.1706,22.76,23.81,27.3,0,111,13.15,23.60,6.3
"2009-08-29 01:03:00",1192735,2.786,44.87,0.916,0.06,20.49,109.1706,22.76,23.81,27.32,0,111,13.15,23.60,6.9
"2009-08-29 01:03:30",1192736,2.825,46.13,0.845,0.088,20.49,109.17,22.76,23.79,27.32,0,111,13.15,23.59,8.1
"2009-08-29 01:04:00",1192737,2.722,48.21,1.462,0.075,20.51,109.1669,22.75,23.78,27.39,0,111,13.15,23.59,10.2
"2009-08-29 01:04:30",1192738,2.785,48.26,1.396,0.094,20.46,109.1594,22.74,23.77,27.38,0,111,13.16,23.57,10.3
"2009-08-29 01:05:00",1192739,2.631,50.64,1.839,0.05,20.41,109.1557,22.73,23.78,27.37,0,111,13.16,23.56,12.6
"2009-08-29 01:05:30",1192740,2.726,51.7,0.756,0.061,20.39,109.1518,22.72,23.76,27.39,0,111,13.16,23.55,13.7
"2009-08-29 01:06:00",1192741,2.857,53.12,1.966,0.06,20.52,109.1495,22.71,23.76,27.39,0,111,13.16,23.54,15.1
"2009-08-29 01:06:30",1192742,2.88,56.36,1.632,0.075,20.52,109.147,22.7,23.76,27.42,0,111,13.16,23.53,18.4
"2009-08-29 01:07:00",1192743,2.886,53.64,1.283,0.068,20.55,109.1453,22.7,23.76,27.41,0,111,13.16,23.53,15.6
"2009-08-29 01:07:30",1192744,2.938,56.29,1.447,0.055,20.53,109.1459,22.7,23.75,27.39,0,111,13.16,23.53,18.3
"2009-08-29 01:08:00",1192745,2.925,59.74,1.506,0.067,20.58,109.1456,22.7,23.75,27.38,0,111,13.16,23.53,21.7
"2009-08-29 01:08:30",1192746,3.054,61.92,2.407,0.085,20.61,109.144,22.7,23.75,27.38,0,111,13.16,23.53,23.9
"2009-08-29 01:09:00",1192747,3.222,62.18,0.975,0.054,20.68,109.142,22.69,23.75,27.37,0,111,13.15,23.52,24.2
"2009-08-29 01:09:30",1192748,3.206,62.06,0.671,0.054,20.68,109.1407,22.69,23.75,27.41,0,111,13.15,23.52,24.1
"2009-08-29 01:10:00",1192749,3.243,66.31,2.787,0.085,20.7,109.1384,22.68,23.73,27.41,0,111,13.15,23.51,28.3
"2009-08-29 01:10:30",1192750,3.328,69.07,1.035,0.078,20.7,109.1406,22.69,23.74,27.52,0,111,13.15,23.52,31.1
"2009-08-29 01:11:00",1192751,3.159,69.59,0.8,0.08,20.7,109.1409,22.69,23.74,27.55,0,111,13.15,23.52,31.6
"2009-08-29 01:11:30",1192752,3.112,69.09,0.895,0.051,20.74,109.1424,22.69,23.73,27.54,0,111,13.15,23.52,31.1
"2009-08-29 01:12:00",1192753,3.164,69.29,0.961,0.054,20.69,109.1418,22.69,23.72,27.52,0,111,13.15,23.52,31.3
"2009-08-29 01:12:30",1192754,3.168,71.92,1.172,0.072,20.75,109.1449,22.7,23.71,27.56,0,111,13.15,23.53,33.9
"2009-08-29 01:13:00",1192755,3.276,68.86,1.88,0.06,20.67,109.1436,22.69,23.7,27.53,0,111,13.15,23.53,30.9
"2009-08-29 01:13:30",1192756,3.2,67.71,0.929,0.058,20.67,109.1376,22.68,23.72,27.44,0,111,13.15,23.51,29.7
"2009-08-29 01:14:00",1192757,3.093,67.67,1.371,0.05,20.65,109.1344,22.67,23.7,27.48,0,111,13.15,23.50,29.7
"2009-08-29 01:14:30",1192758,2.953,68.09,1.017,0.06,20.66,109.13,22.66,23.7,27.5,0,111,13.16,23.49,30.1
"2009-08-29 01:15:00",1192759,2.891,68.43,1.23,0.119,20.69,109.1283,22.66,23.69,27.55,0,111,13.16,23.49,30.4
"2009-08-29 01:15:30",1192760,2.905,67.34,0.864,0.094,20.66,109.1295,22.66,23.68,27.59,0,111,13.16,23.49,29.3
"2009-08-29 01:16:00",1192761,2.799,69.24,0.858,0.073,20.73,109.1305,22.66,23.68,27.55,0,111,13.16,23.49,31.2
"2009-08-29 01:16:30",1192762,2.87,69.04,1.136,0.098,20.69,109.1308,22.66,23.66,27.54,0,111,13.16,23.49,31.0
"2009-08-29 01:17:00",1192763,2.882,64.95,3.541,0.071,20.64,109.1302,22.66,23.65,27.49,0,111,13.16,23.49,26.9
"2009-08-29 01:17:30",1192764,2.907,61.74,0.723,0.046,20.73,109.1252,22.65,23.65,27.4,0,111,13.16,23.48,23.7
"2009-08-29 01:18:00",1192765,2.908,59.39,1.961,0.068,20.71,109.1184,22.63,23.64,27.39,0,111,13.16,23.46,21.4
"2009-08-29 01:18:30",1192766,3.021,62.61,5.842,0.121,20.78,109.106,22.6,23.63,27.46,0,111,13.16,23.43,24.6
"2009-08-29 01:19:00",1192767,3.012,65.05,3.688,0.209,20.78,109.1038,22.59,23.62,27.79,0,110.9,13.16,23.42,27.1
"2009-08-29 01:19:30",1192768,3.3,63.61,2.014,0.061,20.73,109.1041,22.59,23.61,27.53,0,110.9,13.17,23.42,25.6
"2009-08-29 01:20:00",1192769,3.323,68.14,1.851,0.079,20.67,109.1056,22.6,23.59,27.45,0,110.9,13.17,23.43,30.1
"2009-08-29 01:20:30",1192770,3.381,64.27,2.084,0.088,20.7,109.1028,22.59,23.59,27.48,0,110.9,13.17,23.42,26.3
"2009-08-29 01:21:00",1192771,3.346,61.88,1.042,0.061,20.7,109.084,22.54,23.58,27.41,0,110.9,13.17,23.37,23.9
"2009-08-29 01:21:30",1192772,3.268,59.46,1.249,0.093,20.65,109.0733,22.51,23.57,27.38,0,111,13.17,23.34,21.5
"2009-08-29 01:22:00",1192773,3.244,60.45,0.758,0.07,20.7,109.0725,22.51,23.56,27.39,0,111,13.17,23.34,22.5
"2009-08-29 01:22:30",1192774,3.344,63.88,1.934,0.125,20.72,109.0725,22.51,23.54,27.44,0,111,13.17,23.34,25.9
"2009-08-29 01:23:00",1192775,3.385,62.53,1.326,0.057,20.73,109.0714,22.51,23.53,27.47,0,111,13.17,23.34,24.5
"2009-08-29 01:23:30",1192776,3.425,59.48,2.593,0.072,20.68,109.061,22.48,23.52,27.54,0,111,13.17,23.31,21.5
"2009-08-29 01:24:00",1192777,3.428,58.19,1.541,0.057,20.67,109.0458,22.44,23.5,27.45,0,110.9,13.17,23.27,20.2
"2009-08-29 01:24:30",1192778,3.459,63.92,2.042,0.087,20.77,109.0388,22.43,23.5,27.63,0,110.9,13.17,23.26,25.9
"2009-08-29 01:25:00",1192779,3.385,64.72,1.676,0.133,20.73,109.0388,22.43,23.48,27.66,0,110.9,13.17,23.26,26.7
"2009-08-29 01:25:30",1192780,3.582,69.55,1.101,0.114,20.69,109.0388,22.43,23.49,27.69,0,110.9,13.17,23.26,31.6
"2009-08-29 01:26:00",1192781,3.527,71.42,1.158,0.067,20.64,109.0351,22.42,23.46,27.72,0,110.9,13.17,23.25,33.4
"2009-08-29 01:26:30",1192782,3.366,69.33,0.995,0.126,20.61,109.023,22.39,23.46,27.65,0,110.9,13.17,23.22,31.3
"2009-08-29 01:27:00",1192783,3.364,68.37,0.699,0.056,20.72,109.0121,22.36,23.44,27.63,0,110.9,13.17,23.19,30.4
"2009-08-29 01:27:30",1192784,3.233,73.31,1.986,0.099,20.77,109.0053,22.34,23.42,27.78,0,110.9,13.17,23.17,35.3
"2009-08-29 01:28:00",1192785,3.397,70.97,1.052,0.046,20.67,109.0051,22.34,23.43,27.89,0,110.9,13.17,23.17,33.0
"2009-08-29 01:28:30",1192786,3.513,70.29,1.164,0.072,20.63,109.0051,22.34,23.41,27.82,0,110.9,13.17,23.17,32.3
"2009-08-29 01:29:00",1192787,3.455,72.5,1.606,0.051,20.66,109.0051,22.34,23.4,27.74,0,110.9,13.17,23.17,34.5
"2009-08-29 01:29:30",1192788,3.562,76.48,2.271,0.08,20.71,109.0046,22.34,23.39,27.87,0,110.9,13.17,23.17,38.5
"2009-08-29 01:30:00",1192789,3.419,73.61,1.803,0.112,20.69,108.9914,22.3,23.38,27.84,0,110.9,13.17,23.13,35.6
"2009-08-29 01:30:30",1192790,3.412,75.57,0.837,0.064,20.69,108.9809,22.28,23.37,27.83,0,110.9,13.17,23.11,37.6
"2009-08-29 01:31:00",1192791,3.357,76.63,0.816,0.058,20.73,108.9756,22.26,23.36,27.9,0,110.9,13.17,23.09,38.6
"2009-08-29 01:31:30",1192792,3.284,78.53,1.434,0.136,20.67,108.9802,22.28,23.35,28.27,0,110.9,13.17,23.10,40.5
"2009-08-29 01:32:00",1192793,2.981,76.66,1.045,0.1,20.73,108.9854,22.29,23.34,28.4,0,110.9,13.18,23.12,38.7
"2009-08-29 01:32:30",1192794,3.094,74.25,0.928,0.107,20.73,108.9876,22.29,23.35,28.26,0,110.9,13.18,23.12,36.2
"2009-08-29 01:33:00",1192795,3.346,76.68,0.981,0.071,20.75,108.9919,22.31,23.32,28.2,0,110.9,13.18,23.14,38.7
"2009-08-29 01:33:30",1192796,3.396,74.83,2.416,0.046,20.68,108.9882,22.3,23.31,28.19,0,110.9,13.18,23.13,36.8
"2009-08-29 01:34:00",1192797,3.293,77.72,1.296,0.034,20.77,108.9793,22.27,23.3,28.17,0,110.9,13.19,23.10,39.7
"2009-08-29 01:34:30",1192798,3.324,81.1,1.077,0.127,20.74,108.9699,22.25,23.3,28.21,0,110.9,13.19,23.08,43.1
"2009-08-29 01:35:00",1192799,3.176,77.18,1.094,0.05,20.75,108.9654,22.24,23.3,28.19,0,110.9,13.18,23.07,39.2
"2009-08-29 01:35:30",1192800,3.133,80.4,1.421,0.051,20.73,108.9652,22.24,23.28,28.38,0,110.9,13.19,23.07,42.4
"2009-08-29 01:36:00",1192801,3.101,79.16,1.08,0.058,20.71,108.9667,22.24,23.27,28.52,0,110.9,13.19,23.07,41.2
"2009-08-29 01:36:30",1192802,3.198,78.15,0.907,0.062,20.73,108.9688,22.25,23.27,28.5,0,110.9,13.19,23.08,40.2
"2009-08-29 01:37:00",1192803,3.13,76.77,1.113,0.081,20.74,108.9701,22.25,23.27,28.56,0,110.9,13.19,23.08,38.8
"2009-08-29 01:37:30",1192804,2.862,74.42,0.993,0.055,20.66,108.969,22.25,23.25,28.52,0,110.9,13.19,23.08,36.4
"2009-08-29 01:38:00",1192805,2.773,76.32,1.202,0.085,20.7,108.9628,22.23,23.24,28.51,0,110.9,13.19,23.06,38.3
"2009-08-29 01:38:30",1192806,2.792,75.32,1.145,0.08,20.66,108.9544,22.21,23.24,28.54,0,110.9,13.19,23.04,37.3
"2009-08-29 01:39:00",1192807,3.05,76.87,0.92,0.107,20.7,108.9502,22.2,23.23,28.6,0,110.9,13.19,23.03,38.9
"2009-08-29 01:39:30",1192808,3.323,77.25,1.358,0.061,20.74,108.9434,22.18,23.21,28.73,0,110.9,13.19,23.01,39.2
"2009-08-29 01:40:00",1192809,3.522,75.55,1.063,0.142,20.7,108.9409,22.17,23.22,28.75,0,110.9,13.19,23.00,37.6
"2009-08-29 01:40:30",1192810,3.7,75.15,1.188,0.052,20.77,108.9406,22.17,23.19,28.79,0,110.9,13.19,23.00,37.2
"2009-08-29 01:41:00",1192811,3.767,84,4.569,0.157,20.83,108.9406,22.17,23.2,28.84,0,110.9,13.19,23.00,46.0
"2009-08-29 01:41:30",1192812,3.101,82.3,2.76,0.334,20.82,108.9406,22.17,23.2,28.91,0,110.9,13.19,23.00,44.3
"2009-08-29 01:42:00",1192813,3.03,77.12,2.71,0.281,20.76,108.9406,22.17,23.18,28.89,0,110.9,13.19,23.00,39.1
"2009-08-29 01:42:30",1192814,3.469,77.4,4.867,0.119,20.72,108.9406,22.17,23.19,28.82,0,110.9,13.19,23.00,39.4
"2009-08-29 01:43:00",1192815,3.43,75.97,1.616,0.135,20.72,108.9406,22.17,23.19,28.8,0,110.9,13.19,23.00,38.0
"2009-08-29 01:43:30",1192816,3.324,73.49,1.825,0.118,20.7,108.9401,22.17,23.18,28.75,0,110.9,13.19,23.00,35.5
"2009-08-29 01:44:00",1192817,3.725,78.47,1.966,0.159,20.78,108.9395,22.17,23.17,28.73,0,110.9,13.19,23.00,40.5
"2009-08-29 01:44:30",1192818,3.571,80.5,1.782,0.162,20.78,108.9344,22.16,23.17,28.83,0,110.9,13.18,22.99,42.5
"2009-08-29 01:45:00",1192819,3.609,81.4,2.354,0.074,20.8,108.9266,22.14,23.16,28.83,0,110.9,13.18,22.97,43.4
"2009-08-29 01:45:30",1192820,3.314,80.8,1.667,0.095,20.78,108.9184,22.12,23.16,28.84,0,110.9,13.18,22.95,42.8
"2009-08-29 01:46:00",1192821,3.448,78.06,1.844,0.084,20.78,108.9164,22.11,23.14,28.8,0,110.9,13.18,22.94,40.1
"2009-08-29 01:46:30",1192822,3.434,78.52,1.33,0.067,20.78,108.9119,22.1,23.16,28.81,0,110.9,13.19,22.93,40.5
"2009-08-29 01:47:00",1192823,3.416,77.51,1.449,0.067,20.77,108.9069,22.09,23.14,28.81,0,110.9,13.19,22.92,39.5
"2009-08-29 01:47:30",1192824,3.503,74.95,0.896,0.077,20.73,108.9072,22.09,23.14,28.8,0,110.9,13.19,22.92,36.9